sat.trackr.live / text

‹ back to catalog

STARLINK-6044

NORAD 56479 · 2023-064AH

PAYLOAD ACTIVE UNKNOWN

§ Identity

Operator
Country
US
Launch date
2023-05-10
Launch site
AFWTR
Launch vehicle
Mass (kg)
RCS (m²)

Purposes: comms

External: N2YO · Heavens-Above · Gunter

§ Orbital elements

Epoch: 2026-05-24T20:47:30.224256Z

Period
96.11 min
Inclination
69.9990°
Eccentricity
0.0002808
Mean motion
14.98337062 rev/d
Perigee alt
570.1 km
Apogee alt
574.0 km
Semi-major
6,950.2 km
B*
7.0542e-5
RAAN
292.2278°
Arg perigee
277.4765°
Mean anomaly
82.6075°
Rev number
16,715

§ Raw data

STARLINK-60441 56479U 23064AH  26144.86632204  .00000749  00000+0  70542-4 0  99952 56479  69.9990 292.2278 0002808 277.4765  82.6075 14.98337062167154

JSON: /api/v1/satellites/56479 · /tle

For live sub-satellite position, see the globe view (requires WebGL).

§ Visibility from observer

Set your observer location to see the next 7 days of passes ≥ 10°. The values pass through the URL so the page stays shareable.

No JS? Fill the form by hand. The geolocation button needs JavaScript.